Simultaneous Nadir Overpasses (SNOs) Predictions

Prediction of SNOs between NPP and GCOM-C Satellite Orbit:

Table of predicted SNOs for the next 14.0 days since TLE Epoch: 8/13/2022
Index Date (NPP) Time (NPP) Lat,Lon (NPP) SZA (NPP ) Date (GCOM-C) Time (GCOM-C) Lat,Lon (GCOM-C) SZA (GCOM-C ) Distance(km) Time Diff (sec)
1 08/24/2022 04:26:01 -69.06, -68.69 122.14 08/24/2022 04:27:11 -69.01, -67.35 122.22 53.38 70
2 08/24/2022 05:16:37 68.52, 99.36 57.32 08/24/2022 05:17:47 68.51, 99.38 57.31 1.19 70
3 08/24/2022 06:07:20 -68.48, -93.27 122.71 08/24/2022 06:08:18 -68.47, -93.30 122.72 1.63 58
4 08/24/2022 06:58:06 68.47, 74.05 57.29 08/24/2022 06:58:45 68.46, 74.07 57.28 1.51 39
5 08/24/2022 07:48:49 -68.43,-118.58 122.74 08/24/2022 07:49:16 -68.42,-118.61 122.75 1.88 27
6 08/24/2022 08:39:35 68.42, 48.74 57.27 08/24/2022 08:39:43 68.40, 48.76 57.25 1.89 8
7 08/24/2022 09:30:18 -68.38,-143.89 122.77 08/24/2022 09:30:14 -68.36,-143.92 122.78 2.17 4
8 08/24/2022 10:21:04 68.37, 23.43 57.24 08/24/2022 10:20:41 68.35, 23.46 57.22 2.29 23
9 08/24/2022 11:11:47 -68.33,-169.20 122.79 08/24/2022 11:11:12 -68.31,-169.22 122.81 2.49 35
10 08/24/2022 12:02:33 68.32, -1.88 57.21 08/24/2022 12:01:39 68.30, -1.85 57.19 2.72 54
11 08/24/2022 12:53:16 -68.28, 165.49 122.82 08/24/2022 12:52:10 -68.25, 165.47 122.84 2.83 66
12 08/24/2022 13:43:55 67.89, -26.71 56.80 08/24/2022 13:42:43 67.92, -27.56 56.84 35.70 72
13 08/24/2022 14:34:30 -67.42, 141.18 123.67 08/24/2022 14:33:22 -67.44, 139.24 123.62 82.71 68



Historial Predications of SNOs between NPP and GCOM-C
